[分享] 2021美國最常超速車種TOP 10

看板 Car
作者
時間
留言 166則留言,107人參與討論
推噓 99  ( 99推 0噓 67→ )
https://i.imgur.com/3WNCoW1.png
1. Subaru WRX - 49% more speeding tickets than average 2. Hyundai Genesis Coupe - 46% more speeding tickets than average 3. KIA Stinger - 43% more speeding tickets than average 4. Mazda3 - 42% more speeding tickets than average 5. Subaru BRZ - 41% more speeding tickets than average 6. Scion FR-S - 41% more speeding tickets than average 7. GMC C1500 - 38% more speeding tickets than average 8. Volkswagen GTI - 36% more speeding tickets than average 9. Subaru Impreza - 36% more speeding tickets than average 10. Hyundai Veloster - 35% more speeding tickets than average (FR-S即為Scion版Toyota 86) 榜上只有1名德國車(GTI) 1名美國車(GMC Sierra皮卡) 其餘都是亞洲品牌的天下 韓國車 SUBARU佔了3名 WRX也不意外地再度霸榜 BRZ甚至比Toyota旗下吸引年輕人的SCION FR-S還高 看來掃把佬要扭轉飆仔車的印象還有很長一段路要走 source:https://reurl.cc/p1v54Q -- 如何嘴砲反駁對方的重點──◢◣確實指出人家論點的錯誤性 ψQSWEET> ◎駁斥──────用引言指出對方錯誤或矛盾的地方(優質論文) 在嘴砲王相反的觀點──◢████◣列出相反的論點並以事實當證據(辯論社) 應該出現矛盾────◢██████◣列出相反的論點但不加以證實(論壇) 的元素 攻擊態度◢████████◣質疑對方的態度和口氣(匿名版) 人身攻擊偏見▄▄▄▄▄▄▄▄▄▄▄攻擊身份和能耐幹你娘(小朋友) --
※ 發信站: 批踢踢實業坊(ptt.cc), 來自: 123.192.216.75 (臺灣) ※ 文章網址:https://www.ptt.cc/bbs/car/M.1653199891.A.F26.html
1FIron56: 低端亞洲車拿來呸合理啊05/22 14:13
2Fksvs73010182: 居然沒有大本田!~05/22 14:14
3Frainbow321: 速霸陸不錯啊 車好本來就容易開太快05/22 14:17
4Fdslite: 馬自大..05/22 14:26
5FDavidBoss: 自吸mazda3還排第四名哈哈05/22 14:26
美國MAZDA3有2.5T
6Fdslite: 是覺得不輸才用力踩嗎05/22 14:26
7Fhenryhao: 遲到了,超速趕路05/22 14:27
8FOrzOGC: 486車主在美國評價當於台灣喜美吧05/22 14:27
9Fmouz: 雙B保時捷特斯拉都沒有喔05/22 14:27
10Ftokyoto: 這反映的是車主的普遍心態05/22 14:27
11FTokyoHard: GMC C1500 ??? XD05/22 14:28
12FSALEENS7LM: 裡面居然混入了一台皮卡05/22 14:28
13Ftruelove356: 造車工藝的歐車竟然 太會吹了 05/22 14:29
14FLexusNo1: 歐系車不是0-100操控超強嗎?怎麼飆輸日系車xddd05/22 14:32
15Froger840410: 美國警察碰到違規,白人:開玩笑,黃人:開罰05/22 14:33
16Froger840410: 單,黑人:開大槍05/22 14:33
17Fpeterqlin: 我在路上怎麼覺得最會飆的是皮卡...05/22 14:34
18Falexgame01: 能跑又不一定要呸車,什麼思維== 05/22 14:38
※ 編輯: pmes9866 (111.71.220.3 臺灣), 05/22/2022 14:39:39
19FLinuxKernel: 馬川不意外 05/22 14:40
20Fmaniaque: 特粉要哭了.........明明0-100三秒........ 05/22 14:40
21Flewisk: 最常超速(X) 警察最常抓(O) 05/22 14:41
22Fnuggets: 我認識一個開紅色WRX載人搶劫的 05/22 14:43
23Fshowingstar: 飆輸(X)分母多(O) 05/22 14:43
24Flll156k1529: 現代竟然上榜了 他們一定感到很欣慰 05/22 14:43
25Flll156k1529: 國外M3有2.5T四傳版本超猛的,低能台馬不進去進什 05/22 14:45
26Flll156k1529: 麼X引擎賣122.8萬 05/22 14:45
27FLowpapa: 讚 05/22 14:46
28Fjasn4560: 原來馬自達是被警察攔下來才遲到的 05/22 14:47
29Fjasn4560: 2.5T AWD要賣140萬逆 05/22 14:48
30Fmaniaque: 剛看了一下,這是 insurify 網站自己的調查資料 05/22 14:49
31Fmaniaque: insurify 是一個線上投保平台網站 05/22 14:50
32Fmaniaque: 資料來源是自己網站4million 客戶投保資料所統計的 05/22 14:50
33Fmibro: 美國的皮卡都是大馬力大扭力的猛獸….認識的美國客 05/22 14:51
34Fmibro: 人開皮卡的也都很猛XD 05/22 14:51
35Fmaniaque: 投保試算時車主必須將車型跟是否曾被開紅單的訊息 05/22 14:51
36Fmaniaque: 輸入,因此該投保網站資料分析師就根據這些資料出了 05/22 14:51
37FLiamTiger: 馬自達要遲到了當然會超速 05/22 14:52
38Fmaniaque: 這篇文......若電動車不會在這邊投保,那就沒資料 05/22 14:52
39Fmartell11655: 居然沒BMW 05/22 14:53
40Foh123oh: wrx... 05/22 14:54
41Fchi17: 這樣這幾台在這邊保費會很貴 05/22 14:59
42Fissuxark: 486在美國是8+9愛車 來台灣被洗成好爸爸車 05/22 15:02
43Fharrychen413: 居然沒C300 05/22 15:02
44Flll156k1529: 2.5馬三賣140有何不可 同級唯一四傳最大扭力 改裝 05/22 15:04
45Flll156k1529: 潛力足 絕對比只多20匹馬力賣你122.8的東西好多了 05/22 15:04
46Fsupereva: 486 suv在美國真的是好爸爸車吧 05/22 15:07
47Fjasn4560: 萬人響應 幾人到場? 跟出手排我就買一樣 05/22 15:12
48Fyasionl: 應該要順便調查車主國籍年齡性別 05/22 15:23
49Fumin928: 車是看誰開 不是你開了就變8+9 05/22 15:23
50Frifinah: 這個impreza 應該...也是以前的硬皮鯊吧 05/22 15:36
51FDYE: 年輕人開這些車很正常 05/22 15:38
52Fhg32658: 台灣不也是一樣嗎 頭又大當轎跑在呸的 05/22 15:39
53FGymRat: 笑死 怎麼沒有 C300 05/22 15:41
54FTaiwanNeko: 開日韓車的窮人趕時間正常,有錢人都優雅的開 05/22 15:55
55FSTi2011: 笑死 05/22 15:56
56Faal: 應該跟心靈馬力有關 05/22 15:59
57FGary9163: 靠,美國馬三真的有2.5 turbo,台馬到底 05/22 16:01
58Fdcoog7880: MAZDA比86 BRZ高是怎麼回事? 05/22 16:03
59Falexyen0606: 皮卡阿伯才是最恐怖的好嗎 05/22 16:04
60Fj42683: 馬三2.5T四驅台灣賣130-140應該有搞頭吧 ST也這價啊 05/22 16:09
61FJEON: 有什麼搞頭 網路萬人響應 實際十個人買嗎 05/22 16:10
62Fjs52666: 速霸陸的車好啊 是台灣代理== 05/22 16:12
63Fjasn4560: 馬三百萬都被嫌到臭頭了 05/22 16:13
64Fjasn4560: 150萬馬三 不敢想 05/22 16:13
65Floungelover: 窮人不要命的排行 05/22 16:18
66Fj42683: 這種性能車本來就不可能熱賣啊 但是多一個選擇不好 05/22 16:23
67Fj42683: 嗎 不懂有啥好嫌的== 05/22 16:23
68Fz85917131: 馬自達再不超速就要遲到了 05/22 16:25
69Fjasn4560: 不是多一個選擇不好 是台馬幹嘛多弄一個產品線? 05/22 16:29
70Fjasn4560: 講白了122的馬川都被嫌到臭頭 140-150的馬川會賣? 05/22 16:30
71Fjasn4560: 如果不會賣的話 對台馬而言 引進的意義在哪裡? 05/22 16:30
72Fjasn4560: 不是好不好 是可行性 05/22 16:30
73Fjasn4560: 除了車價高 別忘了還有一個稅金也提高 05/22 16:31
74Fjasn4560: CX-5是本來就有2.5的產品線 只是拿渦輪取代自吸 05/22 16:31
75Fjasn4560: 所以產品售價沒有比預期提高太多 05/22 16:31
76Fjasn4560: 馬川已經從6/70萬 變成8/90萬 在變成90/100萬了 05/22 16:32
77Fjasn4560: 現在在往上120/140甚至可能150 接受度? 05/22 16:32
78Fjasn4560: 若2.5T搞在馬六 那可能會賣的不錯 05/22 16:32
79Fjasn4560: CX-5有辦法新增2.5T+LV2 理論上馬六也可行 05/22 16:33
80Fjasn4560: 馬六如果變出一個LV2+2.5T賣在150上下 那才是可行的 05/22 16:33
81FJEON: 不用講那麼多啦 出XX我就買的嘴砲太多了 05/22 16:35
82Fbiggood20708: 台灣人只會看空間買好不好?140馬川一定被嫌到死 05/22 16:35
83Fjasn4560: 在說 馬自達產能就那樣 2.0NA都不夠賣了 05/22 16:36
84Fjasn4560: 又不是為了要清料所以要多開產品線提供選擇 05/22 16:36
85Fzer0319: mazda3 2.5T 0-100跟ST、GTI差不多 05/22 16:36
86Fzer0319: 又是四驅,我覺得有市場欸 05/22 16:37
87FAustinRivers: 年輕人愛車 05/22 16:46
88Fleo255112: 台灣路上的確也可以看到很多開韓車的北爛89 05/22 16:47
89FB9702115: 沒有toyota... 05/22 16:54
90FBMW8888: 很明顯哪牌才是+9 05/22 17:05
91Fchenyi: 酸民崩潰 沒有BMW 05/22 17:14
92Fm95100: 22樓的紅色wrx我好像也認識 05/22 17:21
93Fm95100: https://youtu.be/6XMuUVw7TOM 05/22 17:21
94Fflexin: Mazda不EY 05/22 17:39
95FSaberMyWifi: 反應車主水準,怎麼剛好都是日韓車呢 05/22 17:39
96Fsuggestjoy: c300在美國是拿來租人的低等車吧 當然沒人開這台飆 05/22 17:45
97Fsuggestjoy: 車 05/22 17:45
98Fk1400: Sorry, born to race 05/22 17:45
99Fsammy98: Ford Focus 沒上榜 好車 05/22 17:45
100Fcayalst: 486的車高速下也很穩啊 但這個Impreza是舊款的吧… 05/22 17:49
101Fcayalst: 我不信是新款軟鯊 100多P賣安全性的 05/22 17:49
102FStNeverRush: 那是2.5 awd馬川 跟台灣無關 05/22 17:57
103FAgentSkye56: 怎麼沒有拉屎俊 05/22 18:06
104Fkps1247: 竟然沒bimmer 05/22 18:35
105Fdmezspk: 開過速霸陸的車真心覺得高速有夠穩 05/22 18:38
106Fwhizz: 日本車便宜好改 8+9天堂 05/22 18:40
107Fgiunrz: 美國+9果然愛開東洋賓士 05/22 18:53
108Fmitgreat: 超速代表的不是車好,是代表車主素質低下 05/22 18:54
109Fshowingstar: BMW都在違停啦 沒空飆車 05/22 18:56
110FALDNOAH5566: 便宜車拿來改拿來催 豪華車要賣二手出給其他國家 05/22 18:59
111Fhikkiqoo: 馬川:快遲到了…超速一下 05/22 19:02
112FABJones: 新的impreza不是馬力很小嗎? 05/22 19:18
113Fappleonatree: 我以為BMW第一名 歐美惡名昭彰的方向燈選配 05/22 19:34
114Fyumeixuan: 速霸陸車主不意外啊 05/22 19:44
115FMagicChang: 大多窮人開的車,超速上班正常 05/22 19:44
116FBansar: 美國馬自達看來不會遲到 05/22 19:46
117Fbruce2248: 車主都白人黑人居多 比較不崇尚名牌 亞洲人才愛雙B 05/22 19:49
118Fa152508: 特粉素質高啊 明明跑得贏一樣順順開 05/22 19:58
119Fa152508: 只有素巴魯好像怕別人不知道自己車很快一樣 05/22 19:59
120FPellaeon: BMW只會違規停車 不會超速 根本優良駕駛 05/22 20:14
121FQmaxQ: 速霸陸車主比較不會躲警察 05/22 20:31
122Fkobe7785075: 馬3超速仔還是遲到 是迷路了嗎 05/22 20:46
123FststLiang: 也不是車子快慢的問題 要拿罰單又不用多快 05/22 21:14
124FststLiang: 可能subaru的車比較會讓人想踩油門吧 即使不快 05/22 21:15
125FNexus5X: 用盜版圖資開錯路吧 超速也來不及 05/22 21:19
126FststLiang: 非常多年前的top gear就同時比較evo和sti 主持人 05/22 21:23
127FststLiang: 的結論就是 evo的確是更快 但也無法說兩台誰比較好 05/22 21:24
128FststLiang: 不過他卻發現每次拍攝完後他總是喜歡開著sti回去 05/22 21:24
129FststLiang: 應該很多開subaru性能車款的都會有這種感覺 05/22 21:25
130FBrian1988: 美國速霸陸台灣售價的一半不到,一堆華人都開速霸 05/22 21:34
131Fmilichang: 至少馬三有上榜,誰還敢笑我人馬一體,馬力不足? 05/22 22:46
132Fpf775: 韓國車跑得快嗎 05/22 23:12
133FBenefits: 超跑是100%超速違規的,但數量少,數據才會被掩蓋 05/22 23:41
134FBenefits: 不違規就不叫超跑,尤其在台灣小島更是 05/22 23:41
135Feric19850629: 六星連軟皮鯊都上榜 XD 是怎樣 老美一上車都變本田 05/22 23:52
136FTuTuShrimp: 美國高速公路限速104 要怎麼開才不超速 05/22 23:53
137Fish55667788: 一排跑車中藏了台馬三 05/23 00:12
138FLindeman5566: 美國8+9品牌 05/23 00:19
139Fdevin0329: 馬三不是會遲到嗎 05/23 00:56
140Fqwe172839: 人家的馬三是羊皮狼 我們賣的是羊 不一樣 05/23 00:59
141Fchi17: 在台灣任何車輛都是100%超速違規的 05/23 01:20
142Fcityport: 美國的486轎款都是8+9無誤..反而休旅都是三寶在開 05/23 02:49
143Famethystboy: 絕對沒有牛頭 05/23 06:21
144Ffancyfxxk: 美國馬三2.5NA才79萬 好爽喔 05/23 07:23
145Fjoshau: 在台灣,超速排行應該就是8+9專用車而已了 05/23 09:04
146Fjasn4560: 美國C300也才100出頭萬阿 05/23 10:56
147Fchenn: subaru高速就是穩 車少的高速 不小心就150km/hr 05/23 11:25
148Fchenn: 一堆沒待過美國的在蝦虎爛 一副蚵糞味 05/23 11:29
149Fsuitup: 現在沒有了啦 486仔在台灣那顆1.6na 2.0na要開到150 05/23 11:29
150Fsuitup: 看是要整路聽牛叫聲 05/23 11:29
151Fchenn: 美國一堆2.5Na 誰要買2.0 05/23 11:35
152Fcityport: 可是美國是英里不是公里耶,150km/hr怎麼來的? 05/23 12:09
153Fchenn: 幫你換算過了 你小學沒學過單位換算? 05/23 12:36
154Fsuitup: 美國人有FA24DIT 開2.5NA幹嘛 486粉當一半的? 05/23 12:45
155Fchenn: 開好好的幹嘛換車 我爽買哪種車型乾你啥事? 05/23 12:55
156Fchenn: 老話一句 沒待過美國在那邊五四三 蚵蚵 05/23 13:08
157FDJJERRY: 馬三高速真的很穩啊 要不是那個引擎聲真的不會意識 05/23 14:04
158FDJJERRY: 到有開這麼快 05/23 14:05
159FInformatik: 誰說開馬自達會遲到 大家都超速欸 05/23 14:18
160Flalauya: 你看馬之達 怪不得你會遲到 05/23 14:19
161Flalauya: 開啦幹 05/23 14:19
162FMikli: Toyota車主果然保守又守法 05/23 20:30
163Flemongg: 乾笑死就知道我的車一定上榜因為我已經繳了快一台Ma 05/23 23:19
164Flemongg: c的罰單了QQ 05/23 23:19
165Fw10211: GTI才第八 哈哈 05/24 12:02
166FTimeYo: 馬3真的會遲到,每天上班都遲到有點困擾 05/26 00:09

car 最新熱門文章

22 [問題] 緊急煞車會傷哪裡?
67 car 2022-06-27 10:34
18 [菜單] cx5
48 car 2022-06-26 21:55
147 [問題] 新手的第一台車
251 car 2022-06-26 16:04
18 [問題] 新車乙式保險請益
64 car 2022-06-26 11:49
16 [問題] Benz a系列等不到車?
33 car 2022-06-26 11:33
35 [問題] hrv好 但是logo....
83 car 2022-06-26 10:31